This is the latest recevied weather packets stored in our database for station/object KD4MBW. If no packets are shown the sender has not sent any weather packets the latest 10 day(s).
| Time | Temp. | Humidity | Pressure | Rain* | Wind** | Luminosity | Snow |
|---|---|---|---|---|---|---|---|
| 1777932528 | 23.89° C | 44% | 1015.8 hPa | 0 mm | - | 259 W/m² | - |
| 1777932225 | 23.89° C | 43% | 1015.7 hPa | 0 mm | - | 273 W/m² | - |
| 1777931922 | 23.89° C | 43% | 1015.7 hPa | 0 mm | - | 290 W/m² | - |
| 1777931618 | 23.89° C | 44% | 1015.5 hPa | 0 mm | - | 304 W/m² | - |
| 1777931314 | 24.44° C | 44% | 1015.6 hPa | 0 mm | - | 323 W/m² | - |
| 1777931011 | 23.89° C | 44% | 1015.6 hPa | 0 mm | - | 339 W/m² | - |
| 1777930708 | 23.89° C | 44% | 1015.5 hPa | 0 mm | - | 354 W/m² | - |
| 1777930404 | 24.44° C | 44% | 1015.5 hPa | 0 mm | - | 371 W/m² | - |
| 1777930102 | 25° C | 42% | 1015.5 hPa | 0 mm | - | 386 W/m² | - |
| 1777929797 | 25° C | 42% | 1015.3 hPa | 0 mm | - | 401 W/m² | - |
| 1777929495 | 24.44° C | 41% | 1015.4 hPa | 0 mm | - | 417 W/m² | - |
| 1777929191 | 24.44° C | 40% | 1015.6 hPa | 0 mm | - | 433 W/m² | - |
| 1777928889 | 25° C | 39% | 1015.4 hPa | 0 mm | - | 449 W/m² | - |
| 1777928586 | 25° C | 39% | 1015.5 hPa | 0 mm | - | 462 W/m² | - |
| 1777928283 | 25° C | 38% | 1015.4 hPa | 0 mm | - | 478 W/m² | - |
| 1777927981 | 25° C | 37% | 1015.4 hPa | 0 mm | - | 492 W/m² | - |
| 1777927678 | 25° C | 37% | 1015.6 hPa | 0 mm | - | 508 W/m² | - |
| 1777927376 | 25.56° C | 38% | 1015.3 hPa | 0 mm | - | 524 W/m² | - |
| 1777927076 | 25° C | 37% | 1015.7 hPa | 0 mm | - | 534 W/m² | - |
| 1777926772 | 25° C | 38% | 1015.8 hPa | 0 mm | - | 548 W/m² | - |
| 1777926467 | 25.56° C | 36% | 1015.5 hPa | 0 mm | - | 558 W/m² | - |
| 1777926165 | 25° C | 38% | 1015.4 hPa | 0 mm | - | 570 W/m² | - |
| 1777925862 | 25.56° C | 36% | 1015.8 hPa | 0 mm | - | 584 W/m² | - |
| 1777925559 | 25.56° C | 38% | 1015.7 hPa | 0 mm | - | 597 W/m² | - |
| 1777925257 | 25.56° C | 37% | 1015.8 hPa | 0 mm | - | 608 W/m² | - |
* Rain latest hour (hover to see other rain measurements)
** Current wind speed in m/s (hover to see current wind gust speed)